Date String (YYYY-MM-DD hh:mm:ss) UTC,Instrument flags,absolute air pressure of the measurement (hPa),sample flow rate (lpm),inlet stack bypass flow (lpm),air temperature of the measurement (°C),ambient temperature measured by the external sensor (°C),aerosol sample conditioner tube jacket temperature (°C),OPC LED temperature (°C),internal box temperature (°C),relative humidity of the measurement (%),span deviation,mass concentration of particles derived from Lorenz-Mie calculation of OPC scattering (μg/m³),mass concentration of particles derived from Lorenz-Mie calculation of OPC scattering (μg/m³),mass concentration of particles derived from Lorenz-Mie calculation of OPC scattering (μg/m³)
DateTimeUTC,F1_M11,P_M11,Q1_M11,Q2_M11,T1_M11,T2_M11,T3_M11,T4_M11,T5_M11,U1_M11,ZSPAN_M11,X2_M11,X0_M11,X1_M11
2024-03-09 12:00:00,SystemResetWarning,0832.0,5.00,000.00,018.5,017.0,000.0,027.3,020.0,12.6,0000.0,0002.59,0003.00,0002.44
2024-03-09 12:01:00,SystemResetWarning,0832.0,5.01,000.00,018.5,017.8,000.0,027.4,020.4,12.6,0000.0,0002.57,0002.98,0002.41
2024-03-09 12:02:00,SystemResetWarning,0832.0,4.99,000.00,018.8,018.8,000.0,027.4,020.9,12.4,0000.0,0002.56,0002.96,0002.40
2024-03-09 12:03:00,SystemResetWarning,0832.1,4.99,000.00,018.9,019.2,000.0,027.4,021.1,12.3,0000.0,0002.52,0002.86,0002.38
2024-03-09 12:04:00,SystemResetWarning,0832.0,5.00,000.00,018.9,018.8,000.0,027.3,020.7,12.3,0000.0,0002.49,0002.83,0002.35
2024-03-09 12:05:00,SystemResetWarning,0832.0,5.00,000.00,018.8,018.4,000.0,027.3,020.4,12.4,0000.0,0002.48,0002.82,0002.33
2024-03-09 12:06:00,SystemResetWarning,0832.0,5.00,000.00,018.7,017.9,000.0,027.2,020.1,12.4,0000.0,0002.47,0002.82,0002.32
2024-03-09 12:07:00,SystemResetWarning,0832.0,4.99,000.00,018.6,017.5,000.0,027.2,020.0,12.5,0000.0,0002.45,0002.81,0002.29
2024-03-09 12:08:00,SystemResetWarning,0832.0,5.01,000.00,018.5,017.2,000.0,027.3,020.0,12.5,0000.0,0002.46,0002.82,0002.28
2024-03-09 12:09:00,SystemResetWarning,0832.0,5.02,000.00,018.5,017.1,000.0,027.3,020.0,12.5,0000.0,0002.42,0002.80,0002.27
2024-03-09 12:10:00,SystemResetWarning,0832.0,5.00,000.00,018.5,017.8,000.0,027.3,020.4,12.5,0000.0,0002.44,0002.86,0002.25
2024-03-09 12:11:00,SystemResetWarning,0832.0,4.99,000.00,018.8,018.7,000.0,027.4,020.9,12.4,0000.0,0002.43,0002.84,0002.25
2024-03-09 12:12:00,SystemResetWarning,0832.0,5.00,000.00,019.0,019.2,000.0,027.4,021.1,12.2,0000.0,0002.41,0002.85,0002.23
2024-03-09 12:13:00,SystemResetWarning,0832.0,4.99,000.00,018.9,018.8,000.0,027.3,020.8,12.2,0000.0,0002.42,0002.98,0002.21
2024-03-09 12:14:00,SystemResetWarning,0832.0,5.00,000.00,018.8,018.4,000.0,027.3,020.4,12.3,0000.0,0002.42,0003.01,0002.19
2024-03-09 12:15:00,SystemResetWarning,0832.0,5.00,000.00,018.7,017.9,000.0,027.2,020.2,12.3,0000.0,0002.42,0003.03,0002.19
2024-03-09 12:16:00,SystemResetWarning,0832.0,5.00,000.00,018.6,017.5,000.0,027.2,020.0,12.4,0000.0,0002.42,0003.03,0002.18
2024-03-09 12:17:00,SystemResetWarning,0832.0,5.01,000.00,018.5,017.2,000.0,027.3,020.0,12.5,0000.0,0002.40,0003.02,0002.17
2024-03-09 12:18:00,SystemResetWarning,0832.0,5.00,000.00,018.5,017.3,000.0,027.3,020.2,12.5,0000.0,0002.40,0003.05,0002.16
2024-03-09 12:19:00,SystemResetWarning,0832.0,4.99,000.00,018.7,018.3,000.0,027.4,020.7,12.4,0000.0,0002.40,0003.08,0002.16
2024-03-09 12:20:00,SystemResetWarning,0832.0,5.01,000.00,018.9,019.1,000.0,027.4,021.1,12.2,0000.0,0002.39,0003.04,0002.15
2024-03-09 12:21:00,SystemResetWarning,0832.0,4.98,000.00,019.0,019.1,000.0,027.4,021.0,12.1,0000.0,0002.36,0002.98,0002.14
2024-03-09 12:22:00,SystemResetWarning,0831.9,5.00,000.00,018.9,018.7,000.0,027.3,020.6,12.1,0000.0,0002.34,0002.95,0002.13
2024-03-09 12:23:00,SystemResetWarning,0831.9,5.00,000.00,018.8,018.2,000.0,027.3,020.3,12.2,0000.0,0002.36,0002.96,0002.13
2024-03-09 12:24:00,SystemResetWarning,0831.9,4.99,000.00,018.7,017.8,000.0,027.2,020.1,12.3,0000.0,0002.35,0002.87,0002.13
2024-03-09 12:25:00,SystemResetWarning,0831.9,5.01,000.00,018.6,017.4,000.0,027.3,020.0,12.3,0000.0,0002.33,0002.81,0002.13
2024-03-09 12:26:00,SystemResetWarning,0831.9,5.01,000.00,018.5,017.2,000.0,027.3,020.0,12.4,0000.0,0002.34,0003.03,0002.12
2024-03-09 12:27:00,SystemResetWarning,0831.9,5.00,000.00,018.5,017.3,000.0,027.3,020.1,12.4,0000.0,0002.33,0003.06,0002.12
2024-03-09 12:28:00,SystemResetWarning,0832.0,5.00,000.00,018.6,018.3,000.0,027.4,020.6,12.3,0000.0,0002.33,0003.13,0002.12
2024-03-09 12:29:00,SystemResetWarning,0832.0,4.99,000.00,018.9,019.1,000.0,027.4,021.1,12.1,0000.0,0002.33,0003.11,0002.12
2024-03-09 12:30:00,SystemResetWarning,0831.9,4.99,000.00,019.0,019.1,000.0,027.4,021.0,11.9,0000.0,0002.31,0003.16,0002.11
2024-03-09 12:31:00,SystemResetWarning,0831.9,4.99,000.00,018.9,018.7,000.0,027.3,020.6,12.0,0000.0,0002.32,0003.22,0002.10
2024-03-09 12:32:00,SystemResetWarning,0831.9,5.00,000.00,018.8,018.3,000.0,027.3,020.3,12.0,0000.0,0002.33,0003.32,0002.09
2024-03-09 12:33:00,SystemResetWarning,0831.9,5.01,000.00,018.7,017.8,000.0,027.3,020.1,12.1,0000.0,0002.33,0003.35,0002.09
2024-03-09 12:34:00,SystemResetWarning,0832.0,5.00,000.00,018.6,017.5,000.0,027.3,020.0,12.2,0000.0,0002.32,0003.35,0002.08
2024-03-09 12:35:00,SystemResetWarning,0831.9,4.99,000.00,018.5,017.1,000.0,027.3,020.0,12.2,0000.0,0002.31,0003.37,0002.06
2024-03-09 12:36:00,SystemResetWarning,0831.9,4.99,000.00,018.5,017.2,000.0,027.3,020.1,12.2,0000.0,0002.28,0003.30,0002.04
2024-03-09 12:37:00,SystemResetWarning,0832.0,5.02,000.00,018.6,018.1,000.0,027.4,020.5,12.2,0000.0,0002.23,0003.02,0002.01
2024-03-09 12:38:00,SystemResetWarning,0832.0,5.00,000.00,018.8,019.0,000.0,027.4,021.0,12.0,0000.0,0002.23,0003.02,0002.00
2024-03-09 12:39:00,SystemResetWarning,0832.0,4.99,000.00,019.0,019.1,000.0,027.4,021.0,11.9,0000.0,0002.20,0002.93,0001.97
2024-03-09 12:40:00,SystemResetWarning,0831.9,5.00,000.00,018.9,018.7,000.0,027.3,020.6,12.0,0000.0,0002.20,0002.97,0001.94
2024-03-09 12:41:00,SystemResetWarning,0831.9,5.00,000.00,018.8,018.2,000.0,027.3,020.3,12.1,0000.0,0002.18,0003.08,0001.93
2024-03-09 12:42:00,SystemResetWarning,0831.8,5.00,000.00,018.6,017.8,000.0,027.2,020.1,12.1,0000.0,0002.17,0003.70,0001.92
2024-03-09 12:43:00,SystemResetWarning,0831.9,5.00,000.00,018.6,017.4,000.0,027.3,020.0,12.2,0000.0,0002.15,0003.85,0001.90
2024-03-09 12:44:00,SystemResetWarning,0831.9,5.01,000.00,018.5,017.2,000.0,027.3,020.0,12.3,0000.0,0002.14,0004.17,0001.88
2024-03-09 12:45:00,SystemResetWarning,0831.9,5.01,000.00,018.5,017.2,000.0,027.3,020.1,12.3,0000.0,0002.13,0004.18,0001.87
2024-03-09 12:46:00,SystemResetWarning,0832.0,5.01,000.00,018.6,018.1,000.0,027.4,020.5,12.2,0000.0,0002.10,0004.19,0001.87
2024-03-09 12:47:00,SystemResetWarning,0832.0,4.99,000.00,018.8,019.0,000.0,027.4,021.0,12.1,0000.0,0002.09,0004.26,0001.84
2024-03-09 12:48:00,SystemResetWarning,0831.9,4.99,000.00,019.0,019.1,000.0,027.4,021.0,12.0,0000.0,0002.07,0004.26,0001.83
2024-03-09 12:49:00,SystemResetWarning,0831.9,5.01,000.00,018.9,018.8,000.0,027.3,020.7,12.0,0000.0,0002.06,0004.26,0001.81
2024-03-09 12:50:00,SystemResetWarning,0831.8,5.01,000.00,018.8,018.3,000.0,027.3,020.3,12.0,0000.0,0002.04,0004.24,0001.80
2024-03-09 12:51:00,SystemResetWarning,0831.8,4.99,000.00,018.7,017.8,000.0,027.2,020.1,12.1,0000.0,0002.01,0004.19,0001.78
2024-03-09 12:52:00,SystemResetWarning,0831.9,4.99,000.00,018.6,017.4,000.0,027.3,020.0,12.2,0000.0,0002.02,0004.11,0001.76
2024-03-09 12:53:00,SystemResetWarning,0831.9,5.00,000.00,018.5,017.1,000.0,027.3,020.0,12.2,0000.0,0001.99,0003.34,0001.74
2024-03-09 12:54:00,SystemResetWarning,0831.9,5.02,000.00,018.5,017.1,000.0,027.3,020.1,12.2,0000.0,0001.98,0003.20,0001.72
2024-03-09 12:55:00,SystemResetWarning,0831.9,4.99,000.00,018.6,018.0,000.0,027.4,020.5,12.2,0000.0,0001.94,0002.77,0001.69
2024-03-09 12:56:00,SystemResetWarning,0831.9,5.01,000.00,018.8,018.9,000.0,027.4,021.0,12.0,0000.0,0001.92,0002.76,0001.66
2024-03-09 12:57:00,SystemResetWarning,0832.0,5.00,000.00,019.0,019.2,000.0,027.4,021.1,11.9,0000.0,0001.88,0002.58,0001.64
2024-03-09 12:58:00,SystemResetWarning,0831.9,4.99,000.00,018.9,018.8,000.0,027.3,020.7,11.8,0000.0,0001.90,0002.61,0001.63
2024-03-09 12:59:00,SystemResetWarning,0831.8,4.99,000.00,018.8,018.4,000.0,027.3,020.4,11.9,0000.0,0001.91,0003.06,0001.61
